Flag for United Kingdom Weather past 2 weeks in Aylesbury, England, United Kingdom

Now
67 °F

Mild.


Feels Like: 67 °F
Forecast: 57 / 69 °F
Wind: 9 mph from Southwest

Location: High Wicombe Hqstc

Current Time: Jul 6, 2015 at 7:32:17 PM

Latest Report: Jul 6, 2015 at 6:00 PM


Visibility: 25 mi

Pressure: 30.00 "Hg

Humidity: 52%

Dew point: 49 °F

Location of AylesburyLocation

Historic Weather in Aylesbury — Graph

°F

Aylesbury temperature yesterday

Maximum temperature yesterday: 70 °F (at 3:00 PM)
Minimum temperature yesterday: 55 °F (at 5:00 AM)
Average temperature yesterday: 60 °F

Past Weeks' High & Low Weather Summary

 TemperatureHumidityPressure
High90 °F (Jul 1, 4:00 PM)99% (Jul 4, 5:00 AM)30.31 "Hg (Jul 4, 5:00 AM)
Low49 °F (Jun 23, 6:00 AM)29% (Jun 30, 3:00 PM)29.79 "Hg (Jun 22, 3:00 PM)
Average63 °F70%30.07 "Hg
* Reported Jun 21 7:00 PM — Jul 6 6:00 PM, Aylesbury, Weather by CustomWeather, © 2015

Note: Actual official high and low records may vary slightly from our data, if they occured in-between our weather recording intervals... More about our weather records

Advertising

Aylesbury weather history for previous 24 hours

 ConditionsComfort  
Time TempWeatherWind HumidityBarometerVisibility
6:00 PM
Mon, Jul 6
67 °FMild.9 mph52%30.00 "Hg25 mi
5:00 PM68 °FMild.10 mph49%30.02 "Hg28 mi
4:00 PM66 °FMild.10 mph49%30.04 "Hg25 mi
3:00 PM66 °FMild.9 mph52%30.07 "Hg17 mi
2:00 PM64 °FMild.9 mph56%30.06 "Hg11 mi
1:00 PM65 °FMild.9 mph59%30.08 "Hg17 mi
12:00 PM64 °FMild.10 mph58%30.09 "Hg19 mi
11:00 AM64 °FMild.10 mph59%30.10 "Hg12 mi
10:00 AM60 °FCool.8 mph61%30.11 "Hg28 mi
9:00 AM58 °FCool.8 mph75%30.12 "Hg17 mi
8:00 AM55 °FCool.6 mph87%30.13 "Hg11 mi
7:00 AM52 °FCool.5 mph93%30.13 "Hg9 mi
6:00 AM51 °FCool.3 mph94%30.12 "Hg11 mi
5:00 AM50 °FCool.3 mph96%30.12 "Hg11 mi
4:00 AM51 °FCool.3 mph95%30.11 "Hg9 mi
3:00 AM52 °FCool.3 mph92%30.11 "Hg12 mi
2:00 AM53 °FCool.3 mph88%30.11 "Hg14 mi
1:00 AM53 °FCool.3 mph90%30.10 "Hg16 mi
12:00 AM55 °FCool.5 mph89%30.09 "Hg19 mi
11:00 PM
Sun, Jul 5
56 °FCool.5 mph87%30.07 "Hg25 mi
10:00 PM57 °FCool.6 mph82%30.06 "Hg28 mi
9:00 PM59 °FCool.6 mph74%30.03 "Hg28 mi
8:00 PM61 °FCool.6 mph66%30.02 "Hg28 mi
7:00 PM59 °FCool.7 mph68%30.02 "Hg25 mi
Weather by CustomWeather, © 2015

See weather overviewHow to use our weather pages